West Porterville
DateTemperatureDew Point
05/03 - 03:00 PM74.3°55.5°
05/03 - 02:45 PM74.8°55.5°
05/03 - 02:30 PM74.3°55.2°
05/03 - 02:15 PM76.0°56.3°
05/03 - 02:00 PM75.4°56.3°
05/03 - 01:45 PM74.5°56.4°
05/03 - 01:30 PM74.0°56.3°
05/03 - 01:15 PM73.2°56.8°
05/03 - 01:00 PM73.0°56.9°
05/03 - 12:45 PM71.2°57.2°
05/03 - 12:30 PM69.6°56.9°
05/03 - 12:15 PM68.9°56.6°
05/03 - 12:00 PM68.2°56.9°
05/03 - 11:45 AM67.4°56.9°
05/03 - 11:30 AM67.1°56.7°
05/03 - 11:15 AM66.9°56.8°
05/03 - 11:00 AM66.7°56.9°
05/03 - 10:45 AM65.9°56.2°
05/03 - 10:30 AM65.4°56.0°
05/03 - 10:15 AM65.5°56.0°
05/03 - 10:00 AM64.0°55.6°
05/03 - 09:45 AM63.4°55.6°
05/03 - 09:30 AM62.9°55.8°
05/03 - 09:15 AM62.2°55.5°
05/03 - 09:00 AM61.1°54.9°
05/03 - 08:45 AM60.2°54.8°
05/03 - 08:30 AM59.4°54.5°
05/03 - 08:15 AM58.3°54.2°
05/03 - 08:00 AM57.4°54.0°
05/03 - 07:45 AM56.4°53.6°
05/03 - 07:30 AM55.3°53.3°
05/03 - 07:15 AM54.3°53.1°
05/03 - 07:00 AM53.7°52.3°
05/03 - 06:45 AM53.7°52.5°
05/03 - 06:30 AM53.7°52.6°
05/03 - 06:15 AM53.8°52.7°
05/03 - 06:00 AM53.8°52.6°
05/03 - 05:45 AM54.3°53.0°
05/03 - 05:30 AM54.5°53.4°
05/03 - 05:15 AM54.6°53.5°
05/03 - 05:00 AM54.7°53.3°
05/03 - 04:45 AM54.9°53.3°
05/03 - 04:30 AM55.3°53.7°
05/03 - 04:15 AM55.7°54.2°
05/03 - 04:00 AM56.2°54.9°
05/03 - 03:45 AM56.6°55.3°
05/03 - 03:30 AM57.1°56.0°
05/03 - 03:15 AM57.4°56.5°
05/03 - 03:00 AM57.5°56.7°
05/03 - 02:45 AM57.4°56.5°
05/03 - 02:30 AM56.8°55.7°
05/03 - 02:15 AM56.6°55.2°
05/03 - 02:00 AM56.5°54.8°
05/03 - 01:45 AM56.6°54.8°
05/03 - 01:30 AM56.7°54.8°
05/03 - 01:15 AM57.1°54.7°
05/03 - 01:00 AM57.7°55.1°
05/03 - 12:45 AM58.0°55.4°
05/03 - 12:30 AM58.3°55.4°
05/03 - 12:15 AM58.7°55.7°
05/03 - 12:00 AM59.2°55.8°
05/02 - 11:45 PM59.8°56.3°
05/02 - 11:30 PM60.2°56.6°
05/02 - 11:15 PM60.4°56.5°
05/02 - 11:00 PM60.9°56.5°
05/02 - 10:45 PM61.7°56.3°
05/02 - 10:30 PM62.3°56.3°
05/02 - 10:15 PM63.1°56.4°
05/02 - 10:00 PM63.6°56.3°
05/02 - 09:45 PM64.4°55.5°
05/02 - 09:30 PM65.3°55.3°
05/02 - 09:15 PM66.7°54.7°
05/02 - 09:00 PM68.0°54.6°
05/02 - 08:45 PM69.1°54.3°
05/02 - 08:30 PM69.6°55.2°
05/02 - 08:15 PM70.0°54.2°
05/02 - 08:00 PM71.5°55.6°
05/02 - 07:45 PM73.4°55.6°
05/02 - 07:30 PM74.9°54.6°
05/02 - 07:15 PM76.7°54.7°
05/02 - 07:00 PM78.4°55.0°
05/02 - 06:45 PM79.9°55.2°
05/02 - 06:30 PM81.1°54.5°
05/02 - 06:15 PM82.2°54.3°
05/02 - 06:00 PM83.1°54.1°
05/02 - 05:45 PM83.9°53.4°
05/02 - 05:30 PM84.6°55.1°
05/02 - 05:15 PM85.3°54.5°
05/02 - 05:00 PM85.9°52.5°
05/02 - 04:45 PM86.1°52.4°
05/02 - 04:30 PM86.3°54.6°
05/02 - 04:15 PM86.6°54.3°
05/02 - 04:00 PM87.1°54.1°
05/02 - 03:45 PM88.1°53.1°
05/02 - 03:30 PM88.0°53.2°
05/02 - 03:15 PM88.2°50.7°
05/02 - 03:00 PM88.4°52.1°
05/02 - 02:45 PM88.4°52.5°
05/02 - 02:30 PM88.1°52.8°
05/02 - 02:15 PM87.8°54.5°
05/02 - 02:00 PM87.7°53.9°
05/02 - 01:45 PM87.6°55.9°
05/02 - 01:30 PM87.3°56.6°
05/02 - 01:15 PM87.0°58.1°
05/02 - 01:00 PM86.0°57.3°
05/02 - 12:45 PM85.1°57.5°
05/02 - 12:30 PM84.2°59.7°
05/02 - 12:15 PM83.1°59.3°
05/02 - 12:00 PM82.0°59.5°
05/02 - 11:45 AM81.7°60.1°
05/02 - 11:30 AM80.9°59.9°
05/02 - 11:15 AM80.1°60.4°
05/02 - 11:00 AM79.4°60.2°
05/02 - 10:45 AM78.6°60.2°
05/02 - 10:30 AM77.5°59.7°
05/02 - 10:15 AM76.4°59.0°
05/02 - 10:00 AM74.9°58.8°
05/02 - 09:45 AM73.4°59.3°
05/02 - 09:30 AM71.7°59.0°
05/02 - 09:15 AM70.4°58.6°
05/02 - 09:00 AM68.7°58.3°
05/02 - 08:45 AM67.3°57.9°
05/02 - 08:30 AM65.5°57.5°
05/02 - 08:15 AM63.8°57.0°
05/02 - 08:00 AM62.1°56.5°
05/02 - 07:45 AM60.4°56.2°
05/02 - 07:30 AM58.9°56.1°
05/02 - 07:15 AM57.2°56.0°
05/02 - 07:00 AM55.7°54.6°
05/02 - 06:45 AM55.0°53.7°
05/02 - 06:30 AM54.5°53.1°
05/02 - 06:15 AM54.4°53.0°
05/02 - 06:00 AM54.5°53.1°
05/02 - 05:45 AM54.4°52.9°
05/02 - 05:30 AM54.4°52.7°
05/02 - 05:15 AM54.5°52.8°
05/02 - 05:00 AM54.6°53.0°
05/02 - 04:45 AM54.9°53.2°
05/02 - 04:30 AM55.3°53.6°
05/02 - 04:15 AM55.5°53.8°
05/02 - 04:00 AM55.5°53.8°
05/02 - 03:45 AM55.6°53.9°
05/02 - 03:30 AM55.7°54.2°
05/02 - 03:15 AM55.8°54.2°
05/02 - 03:00 AM56.1°54.5°
05/02 - 02:45 AM56.2°54.5°
05/02 - 02:30 AM56.6°54.8°
05/02 - 02:15 AM56.9°54.8°
05/02 - 02:00 AM57.4°55.1°
05/02 - 01:45 AM57.7°55.4°
05/02 - 01:30 AM58.0°55.7°
05/02 - 01:15 AM58.4°56.0°
05/02 - 01:00 AM58.9°56.0°
05/02 - 12:45 AM59.3°56.3°
05/02 - 12:30 AM59.4°56.2°
05/02 - 12:15 AM60.0°56.5°
05/02 - 12:00 AM60.3°56.8°
05/01 - 11:45 PM60.9°57.1°
05/01 - 11:30 PM61.5°57.4°
05/01 - 11:15 PM61.8°57.3°
05/01 - 11:00 PM62.2°57.0°
05/01 - 10:45 PM62.4°57.1°
05/01 - 10:30 PM62.5°57.0°
05/01 - 10:15 PM62.3°57.7°
05/01 - 10:00 PM62.6°58.9°
05/01 - 09:45 PM63.5°59.5°
05/01 - 09:30 PM64.0°59.7°
05/01 - 09:15 PM64.6°60.0°
05/01 - 09:00 PM65.3°60.4°
05/01 - 08:45 PM66.3°60.4°
05/01 - 08:30 PM67.2°60.0°
05/01 - 08:15 PM68.5°59.9°
05/01 - 08:00 PM69.9°59.9°
05/01 - 07:45 PM71.7°60.0°
05/01 - 07:30 PM73.6°60.1°
05/01 - 07:15 PM75.9°59.7°
05/01 - 07:00 PM77.8°58.6°
05/01 - 06:45 PM79.2°57.8°
05/01 - 06:30 PM80.2°57.5°
05/01 - 06:15 PM81.0°57.3°
05/01 - 06:00 PM81.6°58.1°
05/01 - 05:45 PM82.3°58.4°
05/01 - 05:30 PM82.9°57.1°
05/01 - 05:15 PM83.9°57.1°
05/01 - 05:00 PM84.6°56.9°
05/01 - 04:45 PM85.1°55.7°
05/01 - 04:30 PM85.7°56.7°
05/01 - 04:15 PM86.1°56.7°
05/01 - 04:00 PM86.3°56.3°
05/01 - 03:45 PM86.6°55.4°